Temp
-9 -9 -9 -9 -9 -9 -9 -9 -9 -9 -9 -9 -9 -9 -9 -9 -10 -10 -10 -10 -10 -10 -10 -10 -10 -10 -10 -10 -10 -10 -10 -10 -10 -10 -10 -10 -10 -10 -10 -10 -10 -10 -10 -10 -11 -11 -11 -11 -11 -11 -11 -11 -11 -11 -11 -11 -11 -11 -11 -11 -11 -11
-9 -9 -9 -9 -9 -9 -9 -9 -9 -9 -9 -9 -9 -9 -9 -9 -10 -10 -10 -10 -10 -10 -10 -10 -10 -10 -10 -10 -10 -10 -10 -10 -10 -10 -10 -10 -10 -10 -10 -10 -10 -10 -10 -11 -11 -11 -11 -11 -11 -11 -11 -11 -11 -11 -11 -11 -11 -11 -11 -11 -11 -11
-9 -9 -9 -9 -9 -9 -9 -9 -9 -9 -9 -9 -9 -9 -9 -10 -10 -10 -10 -10 -10 -10 -10 -10 -10 -10 -10 -10 -10 -10 -10 -10 -10 -10 -10 -10 -10 -10 -10 -10 -10 -10 -10 -11 -11 -11 -11 -11 -11 -11 -11 -11 -11 -11 -11 -11 -11 -11 -11 -11 -11 -11
-9 -9 -9 -9 -9 -9 -9 -9 -9 -9 -9 -9 -9 -9 -9 -10 -10 -10 -10 -10 -10 -10 -10 -10 -10 -10 -10 -10 -10 -10 -10 -10 -10 -10 -10 -10 -10 -10 -10 -10 -10 -10 -10 -10 -11 -11 -11 -11 -11 -11 -11 -11 -11 -11 -11 -11 -11 -11 -11 -11 -11 -11
-9 -9 -9 -9 -9 -9 -9 -9 -9 -9 -9 -9 -9 -9 -10 -10 -10 -10 -10 -10 -10 -10 -10 -10 -10 -10 -10 -10 -10 -10 -10 -10 -10 -10 -10 -10 -10 -10 -10 -10 -10 -10 -10 -10 -10 -10 -11 -11 -11 -11 -11 -11 -11 -11 -11 -11 -11 -11 -11 -11 -11 -11
-10 -9 -9 -9 -9 -9 -9 -9 -9 -9 -9 -9 -9 -9 -10 -10 -10 -10 -10 -10 -10 -10 -10 -10 -10 -10 -10 -10 -10 -10 -10 -10 -10 -10 -10 -10 -10 -10 -10 -10 -10 -10 -10 -10 -10 -10 -10 -10 -11 -11 -11 -11 -11 -11 -11 -11 -11 -11 -10 -11 -11 -11
-9 -9 -9 -9 -9 -9 -9 -9 -9 -9 -9 -9 -9 -9 -10 -10 -10 -10 -10 -10 -10 -10 -10 -10 -10 -10 -10 -11 -11 -11 -10 -10 -10 -10 -10 -10 -10 -10 -10 -10 -10 -10 -10 -10 -10 -10 -10 -10 -10 -10 -11 -11 -11 -11 -11 -11 -11 -11 -11 -11 -11 -11
-9 -9 -9 -9 -9 -9 -9 -9 -9 -9 -9 -9 -9 -10 -10 -10 -10 -10 -10 -10 -10 -10 -10 -10 -10 -10 -11 -11 -11 -11 -11 -10 -10 -10 -10 -10 -10 -10 -10 -10 -10 -10 -10 -10 -10 -10 -10 -10 -10 -10 -10 -10 -11 -11 -11 -11 -11 -11 -11 -11 -11 -11
-9 -9 -9 -9 -9 -9 -9 -9 -9 -9 -9 -9 -10 -10 -10 -10 -10 -10 -10 -10 -10 -10 -10 -10 -10 -11 -11 -11 -11 -11 -11 -10 -10 -10 -10 -10 -10 -10 -10 -10 -10 -10 -10 -10 -10 -10 -10 -10 -10 -11 -10 -10 -10 -11 -11 -11 -11 -11 -11 -11 -11 -11
-9 -9 -10 -10 -10 -9 -9 -9 -9 -9 -9 -10 -10 -10 -10 -10 -10 -10 -10 -10 -10 -10 -10 -10 -10 -11 -11 -11 -11 -11 -11 -10 -10 -10 -10 -10 -10 -10 -10 -10 -10 -10 -10 -10 -10 -10 -10 -10 -10 -11 -11 -11 -10 -10 -10 -11 -11 -11 -11 -11 -11 -11
-10 -10 -10 -10 -10 -10 -9 -9 -9 -10 -10 -10 -10 -10 -10 -10 -10 -10 -10 -10 -10 -10 -10 -10 -11 -11 -11 -11 -11 -11 -10 -10 -10 -10 -10 -10 -10 -10 -10 -10 -10 -10 -10 -10 -10 -10 -10 -10 -10 -10 -11 -11 -11 -10 -10 -10 -11 -11 -10 -10 -11 -11
-10 -10 -10 -10 -10 -10 -10 -10 -10 -10 -10 -10 -10 -10 -10 -10 -10 -10 -10 -10 -10 -10 -10 -10 -11 -11 -11 -11 -11 -11 -11 -10 -10 -10 -10 -10 -10 -10 -10 -10 -10 -10 -10 -10 -10 -10 -10 -10 -10 -10 -10 -10 -10 -10 -10 -11 -11 -11 -10 -10 -11 -11
-11 -11 -10 -10 -10 -10 -10 -10 -10 -10 -10 -10 -10 -10 -10 -10 -10 -10 -10 -10 -10 -10 -10 -11 -11 -11 -11 -11 -11 -11 -11 -11 -11 -11 -11 -10 -10 -10 -10 -10 -10 -10 -10 -10 -10 -10 -10 -10 -10 -10 -10 -10 -10 -10 -10 -10 -11 -11 -11 -10 -11 -11
-11 -11 -11 -10 -10 -10 -10 -10 -10 -10 -10 -10 -10 -10 -10 -10 -10 -10 -10 -10 -11 -11 -11 -11 -11 -11 -11 -11 -11 -11 -11 -11 -11 -11 -11 -10 -10 -10 -10 -10 -10 -10 -10 -10 -10 -10 -10 -10 -10 -10 -10 -10 -10 -10 -10 -10 -10 -10 -11 -10 -10 -11
-11 -11 -11 -11 -11 -10 -10 -10 -10 -10 -10 -10 -10 -10 -10 -10 -10 -10 -10 -10 -11 -11 -11 -11 -11 -11 -11 -11 -11 -11 -11 -11 -11 -11 -11 -11 -11 -11 -11 -11 -11 -11 -11 -10 -10 -11 -10 -10 -10 -10 -10 -10 -10 -10 -10 -10 -10 -10 -10 -10 -10 -10
-11 -11 -11 -11 -11 -11 -10 -10 -10 -11 -11 -10 -10 -10 -10 -10 -10 -10 -10 -10 -11 -11 -11 -11 -11 -11 -11 -11 -11 -11 -11 -11 -11 -11 -11 -11 -11 -11 -11 -11 -11 -11 -11 -11 -11 -11 -11 -11 -11 -11 -11 -10 -10 -10 -10 -10 -10 -10 -10 -10 -10 -10
-11 -11 -11 -11 -11 -11 -11 -11 -11 -11 -11 -11 -11 -10 -10 -11 -11 -11 -11 -11 -11 -11 -11 -11 -11 -11 -11 -11 -11 -11 -11 -11 -11 -11 -11 -11 -11 -11 -11 -11 -11 -11 -11 -11 -11 -11 -11 -11 -11 -11 -11 -11 -11 -11 -11 -11 -10 -10 -10 -10 -10 -10
-11 -11 -11 -11 -11 -11 -11 -11 -11 -11 -11 -11 -11 -11 -11 -11 -11 -11 -11 -11 -11 -11 -11 -11 -11 -11 -11 -11 -11 -11 -11 -11 -11 -11 -11 -11 -11 -11 -11 -11 -11 -11 -11 -11 -11 -11 -11 -11 -11 -11 -11 -11 -11 -11 -11 -11 -11 -11 -10 -10 -10 -10
-12 -12 -12 -12 -11 -11 -11 -11 -11 -11 -11 -11 -11 -11 -11 -11 -11 -11 -12 -12 -11 -11 -11 -11 -11 -11 -11 -11 -11 -11 -11 -11 -11 -11 -11 -11 -11 -11 -11 -11 -11 -11 -11 -11 -11 -11 -11 -11 -11 -11 -11 -11 -11 -11 -11 -11 -11 -11 -11 -11 -10 -10
-12 -12 -12 -12 -12 -11 -11 -11 -11 -11 -11 -11 -12 -12 -12 -12 -12 -12 -12 -12 -11 -11 -11 -11 -11 -11 -11 -11 -11 -11 -11 -11 -11 -11 -11 -11 -11 -11 -11 -11 -11 -11 -11 -11 -11 -11 -11 -11 -11 -11 -11 -11 -11 -11 -11 -11 -11 -11 -11 -11 -11 -11
-12 -12 -12 -12 -12 -11 -11 -11 -11 -11 -11 -12 -12 -12 -12 -12 -12 -12 -11 -11 -11 -11 -11 -11 -11 -11 -11 -11 -11 -11 -11 -11 -11 -11 -11 -11 -11 -11 -11 -11 -11 -11 -11 -11 -11 -11 -11 -11 -11 -11 -12 -11 -11 -11 -11 -11 -11 -11 -11 -11 -11 -11
-12 -12 -12 -12 -12 -12 -12 -11 -11 -11 -11 -11 -11 -11 -12 -12 -12 -12 -11 -11 -11 -11 -11 -11 -11 -11 -11 -11 -11 -11 -11 -11 -11 -11 -11 -11 -11 -11 -11 -11 -11 -11 -11 -11 -11 -11 -11 -11 -11 -11 -12 -12 -11 -11 -11 -11 -11 -11 -11 -11 -11 -11
-12 -12 -12 -12 -12 -12 -12 -11 -11 -12 -11 -11 -11 -11 -12 -12 -12 -12 -11 -11 -11 -11 -11 -11 -11 -11 -11 -11 -11 -11 -11 -11 -11 -11 -11 -11 -11 -11 -11 -11 -11 -11 -11 -11 -11 -11 -11 -11 -11 -11 -11 -11 -11 -12 -12 -12 -12 -12 -12 -11 -12 -11
-12 -12 -12 -12 -12 -12 -12 -12 -12 -12 -12 -12 -12 -12 -12 -12 -12 -12 -12 -11 -11 -11 -11 -11 -11 -11 -11 -11 -11 -11 -11 -11 -11 -11 -11 -11 -11 -11 -11 -11 -11 -11 -11 -11 -11 -11 -11 -11 -11 -11 -11 -11 -11 -11 -11 -12 -12 -12 -12 -12 -12 -12
-12 -12 -12 -12 -12 -12 -12 -12 -12 -12 -12 -12 -12 -12 -12 -13 -12 -12 -12 -12 -11 -11 -11 -11 -11 -11 -11 -11 -11 -11 -11 -11 -11 -11 -11 -11 -11 -11 -11 -11 -11 -11 -11 -11 -11 -11 -11 -12 -11 -11 -11 -11 -11 -11 -11 -11 -11 -12 -12 -12 -12 -12
-12 -12 -12 -12 -12 -12 -12 -12 -13 -12 -12 -12 -12 -12 -13 -13 -12 -12 -12 -12 -11 -11 -11 -11 -11 -11 -11 -11 -11 -11 -11 -11 -11 -11 -11 -11 -11 -11 -11 -11 -11 -11 -11 -11 -11 -12 -12 -12 -12 -12 -12 -11 -11 -11 -11 -11 -11 -12 -12 -12 -12 -12
-12 -12 -12 -13 -12 -12 -12 -13 -13 -12 -12 -12 -12 -13 -13 -13 -12 -12 -12 -12 -11 -11 -11 -11 -11 -11 -11 -11 -11 -11 -11 -11 -11 -11 -11 -11 -11 -11 -11 -11 -11 -11 -11 -11 -12 -12 -12 -12 -12 -12 -12 -12 -12 -11 -11 -12 -11 -11 -12 -12 -12 -12
-12 -12 -12 -12 -12 -12 -12 -12 -12 -12 -12 -13 -13 -13 -13 -12 -12 -12 -12 -12 -12 -11 -11 -11 -11 -11 -12 -12 -12 -12 -12 -12 -12 -12 -12 -12 -11 -11 -11 -11 -11 -12 -12 -12 -12 -12 -12 -12 -12 -12 -12 -12 -12 -12 -12 -11 -11 -11 -11 -12 -12 -12
-12 -12 -12 -12 -12 -12 -12 -12 -12 -12 -12 -13 -13 -12 -13 -13 -12 -12 -12 -12 -12 -12 -12 -12 -12 -12 -12 -12 -12 -12 -12 -12 -12 -12 -12 -12 -12 -12 -12 -12 -12 -12 -12 -12 -12 -12 -12 -12 -12 -12 -12 -12 -12 -12 -12 -12 -12 -11 -11 -11 -11 -12
-13 -12 -12 -12 -12 -12 -12 -12 -12 -12 -13 -13 -13 -13 -13 -13 -12 -12 -12 -12 -12 -12 -12 -12 -12 -12 -12 -12 -12 -12 -12 -12 -12 -12 -12 -12 -12 -12 -12 -12 -12 -12 -12 -12 -12 -12 -12 -12 -12 -12 -12 -12 -12 -12 -12 -12 -12 -12 -12 -12 -11 -11
-13 -13 -12 -12 -12 -13 -13 -13 -12 -13 -13 -13 -13 -13 -13 -13 -12 -12 -12 -12 -12 -12 -12 -12 -12 -12 -12 -12 -12 -12 -12 -12 -12 -12 -12 -12 -12 -12 -12 -12 -12 -12 -12 -12 -12 -12 -12 -12 -12 -12 -12 -12 -12 -12 -12 -12 -12 -12 -12 -12 -12 -12
-13 -13 -13 -13 -13 -13 -13 -13 -13 -13 -13 -13 -13 -13 -13 -13 -12 -12 -12 -12 -12 -12 -12 -12 -12 -12 -12 -12 -12 -12 -12 -12 -12 -12 -12 -12 -12 -12 -12 -12 -12 -12 -12 -12 -12 -12 -12 -12 -12 -12 -12 -12 -12 -12 -12 -12 -12 -12 -12 -12 -12 -12
-13 -13 -13 -13 -13 -12 -12 -13 -13 -13 -13 -13 -13 -13 -13 -13 -12 -12 -12 -12 -12 -12 -12 -12 -12 -12 -12 -12 -12 -12 -12 -12 -12 -12 -12 -12 -12 -12 -12 -12 -12 -12 -12 -12 -12 -12 -12 -12 -12 -12 -12 -12 -12 -12 -12 -12 -12 -12 -12 -12 -12 -12
-13 -13 -13 -13 -13 -13 -13 -13 -13 -13 -13 -13 -13 -13 -13 -13 -12 -12 -12 -12 -12 -12 -13 -13 -13 -13 -13 -13 -13 -13 -13 -13 -13 -13 -13 -13 -13 -13 -13 -13 -13 -13 -13 -13 -13 -13 -13 -13 -13 -13 -13 -13 -13 -12 -12 -12 -12 -12 -12 -12 -12 -12
-13 -13 -13 -13 -13 -13 -13 -13 -13 -13 -13 -13 -13 -13 -13 -13 -13 -13 -13 -13 -13 -13 -13 -13 -13 -13 -13 -13 -13 -13 -13 -13 -13 -13 -13 -13 -13 -13 -13 -13 -13 -13 -13 -13 -13 -13 -13 -13 -13 -13 -13 -13 -13 -13 -13 -13 -13 -13 -12 -12 -12 -12
-13 -13 -13 -13 -13 -13 -13 -13 -13 -13 -13 -13 -13 -13 -13 -13 -13 -13 -13 -13 -13 -13 -13 -13 -13 -13 -13 -13 -13 -13 -13 -13 -13 -13 -13 -13 -13 -13 -13 -13 -13 -13 -13 -13 -13 -13 -13 -13 -13 -13 -13 -13 -13 -13 -13 -13 -13 -13 -13 -13 -13 -12
-13 -13 -13 -13 -14 -13 -13 -13 -13 -13 -13 -13 -13 -13 -13 -13 -13 -13 -13 -13 -13 -13 -13 -13 -13 -13 -13 -13 -13 -13 -13 -13 -13 -13 -13 -13 -13 -13 -13 -13 -13 -13 -13 -13 -13 -13 -13 -13 -13 -13 -13 -13 -13 -13 -13 -13 -13 -13 -13 -13 -13 -13
Height
5854 5855 5855 5856 5857 5857 5857 5858 5858 5857 5857 5857 5857 5857 5856 5855 5855 5855 5854 5854 5853 5852 5851 5850 5850 5849 5848 5847 5846 5845 5844 5843 5842 5842 5842 5842 5842 5841 5841 5840 5840 5839 5839 5839 5839 5838 5838 5838 5837 5837 5836 5836 5835 5835 5834 5833 5833 5832 5833 5832 5831 5831
5853 5853 5854 5855 5855 5856 5856 5856 5856 5856 5856 5856 5856 5856 5855 5855 5854 5854 5854 5853 5853 5852 5851 5850 5849 5848 5847 5846 5845 5844 5843 5842 5842 5841 5841 5841 5841 5841 5841 5840 5840 5839 5839 5839 5838 5838 5838 5837 5836 5836 5835 5835 5835 5834 5833 5832 5832 5832 5832 5831 5830 5830
5851 5852 5853 5854 5855 5855 5855 5855 5855 5855 5855 5855 5855 5855 5854 5854 5853 5853 5853 5853 5852 5852 5851 5850 5849 5848 5847 5846 5845 5844 5843 5842 5841 5841 5840 5840 5840 5841 5841 5840 5840 5839 5839 5838 5838 5838 5837 5837 5836 5835 5834 5834 5834 5833 5833 5832 5831 5831 5831 5830 5829 5829
5850 5851 5852 5853 5854 5854 5854 5854 5854 5854 5854 5854 5854 5854 5854 5853 5852 5852 5852 5852 5851 5851 5850 5849 5848 5847 5846 5845 5844 5844 5843 5842 5841 5840 5840 5840 5840 5840 5840 5840 5840 5840 5839 5838 5838 5838 5837 5836 5836 5835 5834 5833 5833 5832 5832 5831 5830 5830 5830 5829 5828 5828
5849 5851 5851 5852 5853 5853 5853 5853 5853 5853 5853 5853 5853 5853 5853 5852 5852 5851 5851 5851 5850 5850 5849 5848 5847 5846 5845 5845 5844 5843 5843 5842 5841 5840 5840 5839 5839 5839 5839 5839 5839 5839 5839 5838 5838 5837 5837 5836 5835 5834 5833 5832 5832 5831 5831 5830 5830 5829 5829 5828 5827 5826
5848 5850 5850 5851 5851 5851 5851 5851 5852 5852 5852 5852 5852 5852 5852 5851 5851 5851 5850 5850 5849 5849 5848 5847 5846 5846 5845 5844 5844 5843 5843 5842 5841 5840 5840 5839 5839 5838 5838 5838 5838 5837 5837 5837 5837 5837 5837 5836 5835 5834 5833 5832 5831 5830 5829 5829 5828 5828 5827 5827 5826 5825
5847 5848 5849 5849 5848 5849 5850 5850 5850 5850 5850 5850 5851 5851 5851 5851 5850 5850 5849 5848 5848 5847 5846 5846 5845 5845 5845 5845 5845 5844 5842 5841 5840 5840 5840 5839 5839 5838 5838 5837 5837 5836 5836 5836 5836 5836 5835 5835 5834 5834 5833 5832 5831 5830 5829 5827 5827 5826 5826 5826 5825 5824
5845 5846 5846 5847 5847 5847 5848 5848 5848 5849 5849 5849 5850 5850 5850 5850 5849 5848 5848 5847 5847 5846 5845 5845 5844 5844 5845 5846 5845 5843 5842 5841 5841 5840 5840 5839 5838 5838 5837 5837 5836 5836 5835 5834 5834 5834 5834 5833 5832 5832 5832 5831 5830 5829 5828 5827 5825 5824 5824 5825 5824 5823
5842 5844 5844 5845 5845 5845 5846 5846 5847 5847 5848 5848 5849 5849 5849 5849 5848 5847 5847 5846 5846 5845 5844 5843 5842 5842 5843 5844 5843 5843 5842 5841 5840 5840 5839 5839 5838 5838 5837 5836 5836 5836 5835 5834 5834 5833 5833 5832 5831 5830 5829 5829 5829 5828 5827 5826 5824 5823 5822 5823 5823 5822
5840 5841 5842 5842 5843 5843 5844 5845 5845 5846 5847 5847 5848 5848 5848 5848 5847 5847 5846 5845 5845 5844 5843 5842 5842 5842 5842 5841 5842 5842 5841 5840 5840 5839 5839 5838 5838 5837 5837 5836 5835 5835 5835 5834 5833 5832 5832 5831 5829 5829 5828 5827 5827 5826 5826 5824 5823 5822 5820 5821 5821 5820
5837 5838 5839 5840 5840 5841 5842 5843 5844 5844 5845 5846 5846 5847 5847 5847 5846 5846 5845 5845 5844 5843 5842 5841 5841 5841 5841 5840 5841 5841 5840 5839 5839 5839 5838 5838 5838 5837 5836 5836 5835 5835 5834 5833 5833 5832 5831 5830 5828 5827 5826 5826 5825 5824 5824 5823 5821 5820 5819 5819 5819 5818
5834 5835 5837 5838 5838 5839 5840 5841 5841 5842 5843 5844 5844 5845 5845 5845 5845 5845 5844 5844 5844 5843 5842 5841 5840 5840 5840 5840 5841 5840 5840 5839 5839 5838 5838 5838 5837 5837 5836 5836 5835 5834 5833 5833 5832 5831 5830 5829 5827 5826 5825 5824 5823 5823 5822 5822 5820 5819 5817 5816 5817 5817
5832 5833 5834 5835 5836 5837 5838 5838 5839 5840 5841 5842 5843 5843 5843 5844 5844 5844 5843 5843 5843 5842 5841 5840 5839 5839 5839 5840 5839 5839 5838 5838 5837 5837 5837 5837 5837 5836 5836 5835 5834 5833 5833 5832 5831 5830 5829 5828 5827 5826 5824 5823 5822 5821 5821 5821 5820 5818 5816 5815 5814 5814
5830 5831 5832 5834 5835 5835 5835 5836 5837 5839 5840 5841 5841 5841 5842 5842 5842 5842 5842 5842 5841 5840 5839 5839 5838 5838 5838 5838 5838 5837 5837 5836 5836 5836 5836 5836 5836 5835 5835 5834 5834 5833 5832 5832 5831 5830 5828 5827 5826 5825 5823 5822 5821 5820 5819 5819 5818 5817 5816 5814 5813 5812
5828 5829 5831 5831 5832 5833 5833 5835 5836 5838 5839 5840 5839 5839 5840 5840 5841 5841 5841 5840 5840 5839 5838 5838 5837 5837 5837 5837 5836 5836 5836 5836 5836 5836 5835 5835 5835 5834 5834 5833 5833 5833 5832 5831 5830 5829 5828 5826 5825 5824 5823 5822 5820 5819 5818 5817 5816 5815 5814 5813 5812 5811
5827 5828 5828 5829 5830 5831 5832 5834 5835 5836 5838 5838 5838 5837 5838 5838 5839 5840 5840 5839 5838 5838 5838 5837 5837 5836 5836 5836 5835 5835 5835 5835 5835 5835 5835 5834 5834 5834 5833 5833 5832 5832 5831 5830 5829 5828 5827 5826 5825 5824 5822 5821 5819 5818 5817 5816 5814 5814 5813 5812 5811 5810
5825 5825 5826 5827 5829 5830 5831 5832 5832 5834 5836 5836 5835 5835 5835 5836 5837 5838 5838 5837 5836 5837 5837 5836 5836 5835 5834 5834 5834 5834 5834 5834 5834 5834 5834 5834 5833 5833 5832 5832 5831 5831 5830 5829 5828 5827 5826 5825 5824 5823 5821 5820 5818 5817 5816 5815 5813 5812 5811 5810 5810 5809
5823 5823 5824 5825 5827 5829 5830 5829 5829 5832 5834 5834 5833 5833 5834 5835 5835 5836 5836 5835 5836 5836 5835 5835 5834 5834 5833 5833 5833 5832 5832 5833 5833 5833 5833 5833 5832 5832 5831 5831 5830 5829 5829 5828 5827 5826 5825 5824 5823 5821 5820 5818 5817 5816 5814 5813 5812 5811 5810 5809 5808 5807
5822 5822 5822 5823 5825 5827 5828 5827 5827 5829 5831 5832 5831 5832 5834 5835 5835 5835 5835 5835 5834 5833 5833 5833 5832 5832 5832 5832 5832 5831 5831 5832 5832 5831 5831 5831 5830 5830 5829 5829 5828 5828 5827 5826 5825 5824 5823 5822 5821 5820 5819 5817 5816 5815 5813 5812 5811 5809 5808 5807 5806 5805
5819 5819 5820 5821 5823 5824 5826 5826 5826 5827 5828 5829 5830 5832 5833 5834 5834 5834 5833 5831 5830 5830 5831 5831 5831 5832 5832 5831 5831 5831 5831 5831 5830 5830 5829 5829 5829 5828 5828 5827 5826 5826 5825 5824 5823 5822 5821 5821 5820 5818 5817 5816 5815 5813 5812 5811 5809 5808 5807 5805 5804 5803
5816 5816 5819 5821 5822 5822 5823 5823 5824 5825 5826 5825 5827 5829 5830 5830 5831 5832 5830 5828 5828 5829 5830 5830 5831 5831 5831 5831 5830 5830 5830 5829 5829 5828 5828 5827 5827 5827 5826 5825 5825 5824 5823 5822 5821 5820 5819 5819 5818 5817 5815 5814 5813 5812 5811 5809 5807 5806 5805 5803 5802 5801
5814 5815 5818 5820 5820 5821 5821 5822 5822 5823 5823 5823 5824 5825 5826 5827 5828 5829 5828 5827 5828 5829 5829 5830 5830 5830 5830 5829 5829 5829 5828 5828 5827 5827 5826 5826 5825 5825 5824 5823 5823 5822 5822 5821 5819 5818 5817 5816 5815 5815 5814 5812 5811 5810 5809 5808 5806 5805 5803 5802 5800 5799
5814 5815 5815 5816 5816 5818 5820 5821 5821 5821 5821 5821 5823 5823 5823 5824 5827 5828 5827 5827 5828 5828 5828 5829 5829 5829 5829 5828 5828 5828 5827 5826 5826 5825 5825 5824 5824 5823 5822 5821 5821 5820 5819 5819 5818 5816 5815 5814 5813 5812 5811 5810 5809 5808 5807 5806 5804 5803 5802 5800 5799 5797
5813 5812 5811 5811 5813 5815 5817 5818 5819 5820 5821 5821 5822 5822 5821 5823 5826 5827 5826 5827 5827 5827 5827 5828 5828 5828 5827 5827 5827 5826 5826 5825 5824 5824 5823 5823 5822 5821 5821 5820 5819 5818 5817 5817 5816 5815 5813 5812 5811 5810 5809 5808 5807 5805 5804 5804 5802 5800 5800 5799 5797 5796
5810 5810 5810 5810 5811 5812 5813 5815 5817 5819 5820 5821 5821 5822 5823 5824 5826 5826 5826 5826 5826 5826 5827 5827 5826 5826 5826 5825 5825 5825 5824 5824 5823 5822 5821 5821 5820 5820 5819 5818 5817 5817 5816 5815 5814 5813 5812 5810 5809 5808 5806 5805 5804 5803 5802 5801 5800 5798 5797 5796 5795 5794
5807 5808 5809 5809 5810 5811 5812 5813 5815 5817 5818 5819 5819 5821 5822 5823 5823 5824 5824 5825 5825 5825 5825 5825 5825 5824 5824 5824 5823 5823 5822 5822 5822 5821 5820 5819 5819 5818 5818 5817 5816 5815 5814 5813 5812 5811 5809 5808 5807 5805 5804 5803 5801 5800 5799 5798 5797 5797 5795 5793 5792 5792
5804 5806 5808 5809 5809 5810 5811 5812 5813 5814 5815 5816 5818 5819 5819 5821 5822 5822 5823 5823 5823 5824 5824 5823 5823 5823 5823 5822 5821 5821 5820 5820 5820 5819 5818 5818 5817 5816 5815 5815 5814 5813 5812 5811 5810 5808 5807 5806 5805 5803 5802 5801 5799 5798 5797 5795 5794 5794 5793 5791 5789 5789
5802 5804 5806 5807 5808 5808 5809 5810 5811 5812 5813 5814 5815 5817 5817 5819 5820 5821 5821 5822 5822 5822 5822 5822 5822 5821 5821 5820 5820 5819 5819 5818 5818 5817 5816 5815 5815 5814 5813 5813 5812 5811 5809 5808 5807 5806 5805 5804 5803 5801 5800 5798 5797 5796 5794 5793 5791 5790 5790 5790 5788 5786
5801 5803 5804 5805 5805 5806 5807 5809 5810 5811 5812 5813 5814 5815 5816 5818 5819 5819 5820 5820 5821 5821 5821 5821 5820 5820 5819 5819 5818 5818 5817 5816 5816 5815 5814 5813 5812 5812 5811 5810 5809 5808 5807 5806 5805 5804 5802 5801 5800 5799 5798 5796 5795 5793 5792 5790 5789 5787 5786 5786 5785 5784
5799 5801 5802 5803 5804 5805 5807 5809 5810 5811 5811 5812 5813 5814 5815 5816 5817 5818 5818 5819 5819 5820 5820 5819 5819 5818 5818 5817 5817 5816 5815 5814 5813 5812 5812 5811 5810 5809 5808 5807 5806 5805 5804 5803 5802 5800 5799 5798 5797 5796 5795 5794 5793 5791 5790 5788 5786 5785 5783 5782 5781 5781
5797 5799 5801 5802 5804 5806 5807 5808 5809 5810 5810 5811 5811 5813 5814 5815 5816 5816 5817 5817 5818 5818 5818 5818 5817 5817 5816 5815 5815 5814 5813 5812 5811 5810 5809 5808 5808 5807 5806 5805 5804 5802 5801 5800 5799 5797 5796 5795 5794 5792 5791 5790 5789 5788 5787 5786 5784 5782 5781 5779 5778 5777
5796 5798 5800 5802 5804 5805 5806 5806 5807 5808 5808 5809 5810 5811 5812 5813 5814 5815 5815 5816 5816 5816 5816 5816 5815 5814 5814 5813 5812 5812 5811 5810 5809 5808 5807 5806 5805 5804 5803 5802 5801 5800 5798 5797 5796 5795 5793 5792 5790 5789 5788 5786 5785 5784 5783 5781 5780 5779 5777 5776 5775 5774
5795 5797 5799 5801 5802 5803 5804 5804 5805 5806 5807 5808 5809 5810 5811 5812 5812 5813 5814 5814 5814 5814 5814 5813 5813 5812 5812 5811 5810 5810 5809 5808 5807 5806 5805 5804 5803 5801 5800 5799 5798 5797 5796 5794 5793 5792 5790 5789 5787 5786 5784 5783 5781 5780 5778 5777 5776 5774 5773 5772 5770 5770
5795 5796 5798 5800 5801 5801 5802 5803 5804 5805 5805 5806 5807 5808 5809 5810 5810 5811 5811 5811 5811 5811 5811 5811 5811 5810 5810 5809 5808 5808 5807 5806 5805 5803 5802 5801 5800 5799 5798 5796 5795 5794 5792 5791 5789 5788 5787 5785 5784 5782 5781 5779 5778 5777 5775 5774 5772 5770 5769 5768 5766 5765
5794 5795 5796 5797 5798 5799 5800 5801 5802 5803 5803 5804 5805 5806 5807 5808 5808 5809 5809 5809 5809 5809 5809 5809 5809 5808 5808 5807 5806 5805 5804 5803 5802 5801 5800 5799 5797 5796 5795 5793 5792 5790 5789 5788 5786 5785 5783 5781 5780 5778 5777 5776 5774 5773 5771 5770 5768 5766 5765 5763 5762 5761
5792 5792 5793 5794 5796 5797 5798 5799 5800 5801 5802 5803 5804 5805 5806 5806 5806 5807 5807 5807 5807 5807 5807 5807 5807 5806 5805 5805 5804 5803 5802 5801 5800 5798 5797 5796 5794 5793 5792 5790 5789 5787 5786 5784 5783 5781 5779 5778 5776 5774 5773 5772 5770 5769 5767 5766 5764 5763 5761 5759 5758 5756
5789 5790 5791 5793 5794 5796 5797 5798 5799 5799 5800 5801 5802 5803 5803 5804 5804 5804 5805 5805 5805 5805 5805 5805 5804 5804 5803 5802 5801 5800 5800 5798 5797 5796 5794 5793 5792 5790 5789 5787 5786 5784 5783 5781 5779 5778 5776 5774 5773 5771 5769 5768 5767 5765 5763 5762 5760 5758 5757 5755 5753 5751
Wind_Speed
18 17 18 18 18 17 16 14 13 12 11 10 10 12 12 12 11 10 10 10 10 10 10 10 10 10 11 10 10 11 11 12 12 12 12 12 12 12 13 13 14 13 11 10 10 12 13 14 15 15 14 14 14 15 15 15 15 14 13 14 14 13
18 18 19 19 18 17 15 14 13 12 11 10 10 12 12 12 12 11 11 10 10 10 10 10 10 10 10 10 10 10 11 11 11 12 12 12 12 11 12 12 13 13 12 10 9 11 12 14 15 15 15 14 14 15 15 16 16 15 14 14 15 14
17 18 19 18 17 16 15 13 13 12 11 11 11 12 12 12 12 11 11 10 9 9 9 10 10 10 10 10 10 10 10 10 11 12 12 12 12 12 11 11 11 11 11 10 9 10 11 13 14 15 16 15 15 15 15 16 17 17 15 14 15 15
18 18 19 18 16 16 15 14 13 12 12 11 12 12 12 12 12 12 12 10 10 9 9 9 9 10 10 9 9 9 9 10 11 11 12 13 13 13 12 12 11 10 10 10 9 10 11 13 14 15 15 16 16 15 15 16 16 17 16 16 16 16
18 18 18 17 16 16 15 15 14 13 12 13 12 12 12 12 12 12 11 11 10 9 9 9 9 10 10 9 9 8 9 10 10 11 12 13 13 13 13 12 12 11 10 10 10 11 11 13 14 15 16 17 17 17 16 16 16 16 16 16 18 17
18 18 18 17 17 17 16 15 15 14 13 14 13 12 12 12 12 12 11 11 11 10 10 10 10 9 9 9 8 8 8 9 10 11 11 12 13 13 13 12 12 12 11 12 12 13 13 13 14 15 16 17 17 18 18 17 17 16 16 16 18 18
18 19 18 18 18 18 16 17 16 15 15 15 14 13 12 12 12 11 11 12 12 12 12 11 11 9 7 7 7 7 7 8 9 10 10 11 12 13 13 14 13 13 13 14 15 16 16 16 16 15 15 16 16 17 17 18 18 18 18 17 18 19
19 19 18 18 19 18 18 18 17 16 16 16 15 14 13 12 11 12 12 13 13 13 13 12 11 10 6 6 7 7 7 7 8 9 9 10 11 12 13 13 14 14 14 15 17 18 18 19 18 18 17 15 15 16 17 18 19 20 19 18 19 20
20 19 19 20 20 19 19 19 18 17 18 16 15 15 14 13 13 13 14 14 14 13 13 13 12 10 7 6 7 8 8 7 7 8 8 8 9 10 11 12 13 15 16 16 18 19 20 20 19 19 19 17 16 16 17 18 19 20 21 20 20 21
20 20 21 21 20 20 20 19 18 18 18 17 17 17 16 15 14 15 15 16 15 13 13 13 12 11 8 6 7 8 8 7 6 7 7 8 8 9 10 12 14 15 16 17 18 19 20 21 20 20 20 20 19 18 18 19 20 20 22 22 21 22
21 22 22 21 21 20 20 19 18 19 18 18 19 18 17 17 16 16 16 16 15 14 14 13 12 11 9 7 7 7 7 6 6 7 8 8 9 10 11 12 14 15 16 17 18 19 19 20 21 21 21 20 20 20 20 20 21 21 22 23 22 22
22 22 22 21 21 20 19 19 19 20 19 19 20 20 19 18 17 16 17 16 15 14 13 12 11 10 9 7 7 7 6 7 7 7 8 9 10 11 12 13 14 15 16 16 17 18 19 20 20 21 21 21 21 20 20 20 21 22 24 24 22 22
22 22 22 21 21 20 20 21 21 21 21 21 21 21 20 19 17 17 17 16 14 14 13 12 11 10 9 9 7 7 6 7 8 8 9 9 10 11 12 13 14 15 16 16 17 18 18 19 20 20 21 22 22 21 21 20 20 21 23 25 24 23
23 23 23 22 21 22 22 23 23 23 22 21 22 22 21 20 19 18 17 15 14 13 12 12 12 11 10 9 8 7 7 7 8 9 9 10 11 12 12 13 14 15 16 17 17 18 19 19 20 21 21 22 23 23 23 22 21 21 22 23 24 24
25 24 24 24 23 23 24 24 24 23 22 22 22 22 21 20 19 18 17 15 12 11 12 13 12 11 10 9 8 8 8 8 9 9 10 11 12 12 13 13 14 15 16 17 17 18 18 19 19 20 21 22 23 23 24 24 23 23 23 23 24 24
25 25 26 25 25 25 24 24 24 23 23 22 22 22 22 21 20 19 17 14 11 11 13 13 12 11 10 10 9 8 8 9 9 10 11 11 12 13 13 14 14 15 16 16 17 18 18 19 19 20 21 22 23 23 24 25 25 24 24 24 24 24
25 26 27 27 27 25 25 25 25 24 23 23 23 22 22 20 20 21 18 14 11 11 12 11 11 11 11 11 10 9 10 10 10 10 11 12 13 13 13 14 14 15 16 17 17 18 18 19 19 20 21 21 23 23 24 24 25 25 24 24 24 23
25 27 27 28 28 26 26 26 25 23 22 23 24 24 22 20 21 22 18 14 11 11 11 10 10 10 11 11 11 11 12 12 12 12 12 13 13 14 14 15 15 16 17 17 18 18 18 18 19 20 20 21 22 23 24 24 25 25 24 24 23 23
26 27 28 28 29 28 26 26 26 23 22 23 24 23 21 19 19 20 17 13 10 9 9 8 9 10 10 11 11 12 12 12 13 13 13 14 14 15 16 16 16 17 17 17 18 18 18 18 18 19 20 21 22 23 23 24 24 25 25 24 23 23
28 29 29 29 29 28 26 26 27 26 24 23 22 20 18 16 15 14 14 10 8 7 8 8 9 9 9 10 11 12 12 12 13 13 14 15 15 16 16 17 17 17 18 18 18 19 18 18 18 19 20 21 21 22 23 24 24 24 24 24 23 23
30 29 28 27 29 29 28 26 26 27 26 23 20 19 18 18 15 12 11 9 9 9 8 8 8 9 9 10 10 11 11 12 13 13 14 15 16 16 17 17 18 18 18 18 19 19 19 19 19 19 20 21 21 21 22 23 23 23 24 24 23 23
30 28 26 26 28 29 29 28 26 25 24 22 21 21 20 19 17 13 10 10 9 8 9 8 8 9 9 10 10 11 11 12 13 13 14 15 15 16 17 18 18 18 18 18 19 20 20 20 20 20 20 21 21 21 21 22 22 22 23 23 23 23
29 29 28 29 27 24 24 26 25 23 22 22 22 22 21 19 17 13 9 8 8 9 9 9 9 9 10 10 11 11 12 12 13 14 14 15 15 16 17 18 19 19 20 19 19 20 20 21 22 21 21 21 21 22 21 22 22 21 22 22 22 22
28 30 30 30 27 23 23 23 22 21 22 22 22 20 18 16 13 10 8 8 8 9 9 9 9 9 10 10 10 11 12 12 13 14 15 15 16 16 17 18 19 20 20 20 20 20 21 22 22 23 23 22 22 23 22 22 22 22 22 22 22 22
26 30 30 29 27 26 26 24 21 21 21 21 20 18 15 12 9 7 7 8 9 9 10 10 9 9 10 10 11 11 12 13 13 14 15 16 17 17 17 18 19 20 21 21 21 21 21 22 23 23 24 24 24 24 24 23 22 23 24 23 22 22
24 28 29 28 26 26 25 23 21 21 21 21 19 16 13 10 7 7 8 9 10 10 10 10 10 10 10 11 11 12 13 13 14 15 16 17 18 18 18 19 20 21 21 22 22 23 22 23 23 23 24 24 25 25 25 25 24 23 24 25 24 22
23 25 26 25 24 25 23 21 21 19 18 19 17 13 10 8 7 8 9 10 11 12 12 11 11 11 11 12 12 12 13 14 15 16 17 18 18 19 20 20 21 22 22 23 23 23 23 24 24 24 24 25 25 25 25 26 26 24 23 25 26 25
24 23 25 25 23 23 23 22 22 19 17 15 12 9 9 9 9 10 10 11 12 13 13 13 12 12 12 13 13 13 14 14 15 16 17 19 20 21 21 22 22 23 23 24 24 24 25 25 25 26 26 26 26 27 27 27 27 27 25 24 25 26
26 24 24 25 24 23 22 22 21 19 15 10 9 9 10 10 10 10 10 12 13 13 14 14 13 13 13 13 13 14 15 15 16 17 19 20 22 23 24 24 24 24 25 25 26 26 26 26 26 27 27 27 28 28 28 28 28 28 28 26 25 25
23 24 23 24 24 22 20 20 18 15 12 10 10 10 10 10 10 10 11 12 13 14 15 15 15 14 14 14 15 16 17 18 18 19 20 22 23 24 25 26 26 26 27 27 28 28 29 29 28 29 28 28 29 29 29 29 29 29 29 29 28 27
19 21 22 21 20 19 18 17 15 15 13 11 10 10 10 11 11 11 12 13 14 15 15 16 16 16 16 17 17 18 19 20 20 21 22 23 25 26 27 27 27 28 28 28 29 29 30 30 30 30 31 31 30 31 30 30 30 30 30 30 30 29
15 17 19 18 17 18 17 17 16 14 12 11 11 11 11 12 12 13 14 15 16 16 16 17 17 17 18 18 19 20 20 21 22 23 24 25 27 27 28 29 29 29 29 30 30 30 31 31 32 32 32 33 33 33 33 33 33 33 32 32 32 31
13 15 18 19 19 20 20 17 14 13 12 12 12 12 13 14 15 15 16 16 17 17 17 17 17 18 19 19 20 21 22 23 24 25 26 27 28 29 30 30 31 31 31 31 31 32 32 32 33 33 33 34 35 35 36 36 36 35 35 35 34 34
15 18 20 22 23 22 18 15 14 14 14 13 13 13 14 15 16 16 17 17 17 16 16 17 17 18 19 20 21 22 23 24 25 26 28 29 30 31 32 32 32 33 33 33 33 33 33 34 34 35 35 35 36 36 37 37 37 37 37 37 37 36
15 18 20 21 20 17 15 14 14 14 14 14 14 15 15 16 17 17 17 16 16 16 16 17 18 19 21 22 22 23 24 25 26 28 29 30 31 32 32 33 33 34 34 34 34 34 35 35 35 36 36 36 37 37 37 37 38 38 38 38 38 38
14 16 17 17 16 15 15 15 14 14 14 15 15 16 17 17 17 16 16 16 16 17 17 18 19 20 21 22 23 24 25 26 27 28 29 30 31 32 33 33 34 34 34 35 35 35 36 36 36 36 36 36 36 36 36 37 37 38 38 39 39 40
14 15 16 15 15 16 15 15 15 15 16 16 17 17 17 17 16 15 16 16 17 18 19 20 20 21 22 22 23 24 24 26 27 28 29 30 31 33 33 34 34 34 35 35 36 36 36 36 35 35 36 35 36 36 36 37 38 38 38 39 39 40
Wind_Direction
256 254 254 254 253 254 256 259 267 274 280 285 289 292 295 299 300 300 301 306 312 318 321 322 322 324 326 329 333 335 337 342 349 354 357 358 359 358 356 353 353 356 355 347 338 334 336 338 342 345 347 348 347 344 339 338 335 332 334 328 323 325
249 249 251 250 251 252 254 259 265 270 274 279 283 288 292 295 298 299 298 304 312 317 319 319 320 320 321 323 326 331 334 340 347 353 356 357 358 358 357 358 358 0 2 360 348 339 339 341 342 344 346 348 347 345 341 339 338 335 336 327 320 321
246 248 249 248 248 250 253 257 262 265 269 273 277 283 290 293 296 297 298 304 309 314 317 316 316 315 314 316 320 326 332 339 345 350 353 355 356 356 358 0 360 1 2 4 358 347 342 341 341 340 341 343 343 343 341 339 337 336 339 331 322 320
244 247 247 247 246 248 251 255 259 262 264 267 273 280 286 291 294 295 298 303 305 310 313 312 310 307 307 310 314 322 330 337 343 347 349 352 354 355 358 0 1 1 359 358 354 348 342 338 338 338 338 340 340 342 341 339 337 337 341 336 327 324
244 244 244 246 246 247 249 253 256 258 260 262 268 276 283 288 293 297 301 303 304 305 305 304 300 298 301 304 309 319 329 334 339 343 347 350 352 353 355 359 1 2 0 357 354 348 344 340 338 338 338 339 339 340 339 338 338 338 342 338 330 330
242 241 242 245 246 246 247 250 252 253 255 258 264 272 280 288 294 299 303 300 299 299 298 296 294 293 293 298 307 318 326 332 335 339 343 347 347 346 347 352 357 360 0 359 358 354 351 348 344 341 339 339 338 338 336 334 335 335 340 338 330 329
239 238 239 243 246 246 246 248 248 249 250 253 260 269 277 286 293 296 295 295 297 298 297 297 298 295 292 303 311 314 320 325 328 330 338 341 340 340 340 343 347 352 357 358 355 353 352 350 348 345 341 340 338 337 336 333 333 332 336 338 330 327
238 238 240 243 245 245 244 247 246 246 247 250 257 265 273 280 283 287 289 294 300 301 301 300 297 292 298 317 305 298 305 312 318 323 332 337 335 336 338 341 341 343 350 353 350 348 348 347 346 345 344 344 342 339 338 334 333 331 333 336 330 326
241 240 242 243 244 245 244 245 246 247 249 251 255 261 268 274 277 282 290 298 303 305 302 297 294 291 290 300 294 291 296 303 315 321 330 334 330 332 335 338 338 340 344 346 345 343 343 343 343 343 342 343 343 342 339 336 333 331 332 334 331 326
245 243 243 244 243 245 245 245 247 250 252 253 254 258 265 271 276 284 293 301 305 306 303 296 294 292 288 293 296 291 293 303 314 320 328 333 330 331 334 335 334 337 340 339 339 338 338 338 339 340 339 339 339 340 340 338 336 332 331 333 332 327
245 243 242 244 244 245 247 248 249 251 252 252 253 256 262 268 275 284 294 299 304 307 304 299 293 292 295 299 292 282 290 304 313 323 329 332 331 331 332 331 330 331 333 333 333 332 332 333 337 338 336 335 336 336 338 338 338 335 331 333 334 332
241 241 242 244 245 247 249 248 249 250 250 250 251 254 258 264 272 282 290 295 302 307 305 299 292 290 291 287 279 279 295 308 315 326 328 328 328 327 327 326 325 327 328 328 327 327 328 330 333 334 332 332 332 332 333 336 337 335 333 334 336 336
240 241 242 243 246 248 248 248 248 249 250 250 250 252 255 259 268 277 284 290 298 303 302 295 286 283 281 281 286 293 301 309 317 321 323 325 325 326 325 324 323 323 323 322 323 323 325 326 328 328 328 328 328 328 329 332 334 334 333 334 335 336
239 240 242 243 246 246 247 248 249 250 251 251 250 251 253 257 264 271 276 284 292 297 295 287 279 277 279 285 293 300 304 308 312 314 320 324 324 326 324 322 321 319 318 318 319 320 320 321 323 324 324 324 325 325 326 328 331 332 331 332 334 334
240 241 242 243 244 245 247 248 251 253 253 251 251 251 253 257 261 266 269 275 283 288 286 279 275 275 278 283 287 293 298 302 307 312 317 321 321 321 319 319 318 316 315 314 313 313 314 315 317 318 319 320 321 322 324 325 326 329 330 331 333 332
242 243 243 242 243 245 248 250 253 255 255 254 252 252 254 255 257 261 264 269 277 281 280 277 275 274 274 276 280 286 290 293 301 307 310 314 315 315 315 316 315 314 314 312 311 310 310 311 311 313 315 315 317 318 320 321 322 325 326 327 329 329
242 242 243 243 244 246 248 251 252 253 255 255 253 252 252 251 253 255 257 260 266 270 271 272 273 273 274 274 276 280 283 288 295 300 305 309 312 312 313 313 314 314 314 313 311 310 310 311 311 311 313 313 315 316 317 318 318 320 321 321 323 324
245 245 245 246 247 248 248 250 252 252 252 253 254 251 249 252 254 250 247 245 247 255 262 266 268 270 274 276 278 281 284 292 298 302 307 311 313 314 314 315 315 315 315 315 313 312 312 312 312 311 311 312 313 314 315 315 315 315 315 317 318 320
248 246 246 246 246 247 248 250 254 253 249 251 251 245 243 250 248 235 227 229 234 247 261 269 272 271 275 278 282 287 293 299 303 307 312 315 316 316 317 316 317 317 317 318 316 315 315 314 313 312 311 311 311 312 313 313 313 312 313 314 315 317
247 246 246 245 245 246 247 249 251 252 251 248 241 236 235 236 237 227 222 235 253 263 271 276 278 280 282 285 287 292 299 305 308 312 315 317 317 317 316 315 316 318 319 320 319 317 317 317 316 315 312 311 310 310 310 310 310 311 312 312 312 313
245 246 248 249 246 245 247 247 249 251 252 246 239 240 239 237 242 240 238 258 273 275 279 280 282 287 288 290 294 298 304 309 311 313 314 314 315 314 314 315 316 318 319 319 319 318 318 318 317 316 314 310 309 308 308 309 310 312 313 313 312 312
246 246 249 251 248 245 245 244 245 245 244 244 245 246 244 243 246 242 247 263 268 270 276 279 284 288 291 294 299 303 306 309 310 310 311 312 313 314 314 316 317 318 318 318 319 318 318 318 317 315 313 310 309 309 308 309 311 313 313 313 313 312
250 248 248 248 243 238 236 236 235 234 234 238 242 243 242 239 237 239 249 257 261 269 274 278 283 286 292 296 300 303 304 306 308 309 310 312 313 315 316 317 318 318 318 318 318 317 317 316 315 314 312 310 310 310 309 310 310 310 310 310 312 314
253 246 247 246 239 232 229 225 225 225 228 231 232 235 234 225 223 234 246 253 262 269 273 278 284 288 292 295 297 300 302 304 307 308 310 312 313 315 315 316 316 316 317 317 317 317 316 315 314 313 312 311 310 310 309 310 310 310 310 310 312 314
253 243 246 249 242 236 233 225 222 224 222 220 222 223 220 217 226 240 247 256 264 269 276 280 284 289 291 293 296 298 301 304 307 309 310 312 313 313 314 314 314 315 315 316 317 317 316 315 313 312 311 311 310 310 310 310 310 310 310 309 311 312
255 245 248 252 245 237 233 226 222 223 220 215 216 217 220 232 247 255 257 263 269 273 278 281 284 288 291 294 298 300 303 305 307 309 309 310 311 312 312 312 312 312 313 315 316 316 316 315 313 312 311 311 310 310 310 310 310 310 310 309 309 310
261 254 252 253 246 237 232 227 222 220 219 218 217 220 234 249 256 261 267 269 273 276 277 282 285 289 293 295 298 301 303 306 307 308 308 308 308 308 309 309 309 309 310 311 312 313 313 313 312 311 311 311 311 311 311 310 310 310 309 308 308 309
264 259 254 251 246 239 233 230 228 220 211 212 219 232 246 253 258 263 269 272 274 277 279 284 287 289 292 294 298 301 303 305 305 305 305 304 303 303 303 303 304 305 306 307 307 308 309 310 310 310 310 310 310 311 311 310 309 309 309 307 307 308
261 258 255 249 242 237 230 225 222 215 211 220 240 251 250 253 260 263 267 270 273 277 280 282 284 287 289 291 294 296 297 298 298 299 299 299 300 300 300 301 302 303 304 304 304 305 306 307 307 307 308 308 308 308 308 307 307 307 308 307 307 306
260 255 251 246 237 228 219 213 214 226 246 259 257 253 252 255 259 262 267 270 273 276 279 280 281 282 284 286 289 289 291 292 293 295 296 296 297 298 299 300 302 303 304 304 304 304 304 304 304 304 304 304 304 304 304 304 304 304 305 306 306 306
258 248 243 240 227 210 210 223 240 259 269 266 257 255 254 257 259 262 265 268 272 275 277 279 280 282 284 285 286 288 289 291 293 294 294 295 296 297 298 299 301 302 302 303 302 302 302 302 302 302 301 301 301 300 300 300 300 301 301 301 302 303
254 242 233 226 215 216 238 259 267 268 266 260 256 255 255 257 259 261 264 267 271 275 279 282 283 284 285 286 287 288 289 291 293 294 295 296 296 297 298 299 300 300 300 300 300 300 300 299 300 300 300 300 299 299 299 299 299 299 298 298 298 299
250 241 231 227 233 248 262 269 266 261 256 251 250 250 253 256 258 261 265 268 272 276 279 283 284 284 285 286 287 288 290 292 293 295 296 297 297 298 298 299 299 299 299 299 299 299 299 298 298 298 298 298 298 299 299 299 299 298 297 297 297 297
247 244 242 246 253 260 262 257 251 248 246 244 245 247 250 254 258 261 264 268 272 276 279 281 282 284 285 286 288 290 291 293 295 296 297 297 298 298 299 300 300 300 300 300 300 299 299 298 298 298 298 298 298 298 298 298 298 297 297 296 296 295
253 253 254 257 259 258 254 249 246 244 244 246 248 250 253 256 259 262 266 269 273 276 278 280 282 284 286 288 290 292 294 296 296 297 297 298 298 299 300 300 300 301 301 301 301 301 300 300 299 299 298 298 298 298 297 297 296 296 296 296 296 295
261 263 263 262 258 254 252 251 252 251 251 251 252 254 256 257 260 264 269 272 276 279 280 282 284 286 289 291 293 294 295 296 296 296 297 298 299 300 300 301 301 302 302 302 302 302 302 301 301 300 299 299 298 298 297 297 296 296 296 296 296 296
261 264 264 260 256 256 257 258 258 255 252 251 252 254 256 259 264 268 273 277 279 281 281 283 285 287 289 292 293 295 295 294 295 295 297 298 299 301 302 302 303 303 303 303 303 303 303 302 301 301 300 300 300 299 299 299 298 298 297 297 297 296